,,,PA_Meas_PMT16A,,PR_Meas_QMR101_102,,RH_Meas_QMH101,,SR_Meas_QMS101,,TA_Meas_QMH101,,GenWind,,GenWind,
date,time,status,PA,status,PR,status,RH,status,SR,status,TA,status,DirAvg,status,SpdAvg,
2009-07-06, 00:00:05,VALID,1005.1,VALID,0,VALID,93.4919,VALID,0,VALID,23.9566,VALID,344,VALID,0.325,
2009-07-06, 00:01:05,VALID,1005.05,VALID,0,VALID,93.6674,VALID,0,VALID,23.9937,VALID,344,VALID,0.203125,
2009-07-06, 00:02:05,VALID,1005.03,VALID,0,VALID,93.7284,VALID,0,VALID,24.0132,VALID,344,VALID,0.427734,
2009-07-06, 00:03:05,VALID,1005.02,VALID,0,VALID,93.82,VALID,0,VALID,24.0521,VALID,344,VALID,0.189063,
2009-07-06, 00:04:05,VALID,1005,VALID,0,VALID,93.7666,VALID,0,VALID,24.0521,VALID,344,VALID,0.300391,
2009-07-06, 00:05:05,VALID,1004.98,VALID,0,VALID,93.7055,VALID,0,VALID,24.0716,VALID,344,VALID,0.472266,
2009-07-06, 00:06:05,VALID,1005,VALID,0,VALID,93.6903,VALID,0,VALID,24.0716,VALID,344,VALID,0.410937,
2009-07-06, 00:07:05,VALID,1005,VALID,0,VALID,93.5987,VALID,0,VALID,24.0326,VALID,344,VALID,0.407813,
2009-07-06, 00:08:05,VALID,1004.97,VALID,0,VALID,93.6064,VALID,0,VALID,24.0521,VALID,344,VALID,0.425,
2009-07-06, 00:09:05,VALID,1005.01,VALID,0,VALID,93.4767,VALID,0,VALID,23.9937,VALID,344,VALID,0.361719,
2009-07-06, 00:10:05,VALID,1005.03,VALID,0,VALID,93.4919,VALID,0,VALID,23.9742,VALID,344,VALID,0.399609,
2009-07-06, 00:11:05,VALID,1005.01,VALID,0,VALID,93.4614,VALID,0,VALID,23.9742,VALID,344,VALID,0.385547,
2009-07-06, 00:12:05,VALID,1005.03,VALID,0,VALID,93.3928,VALID,0,VALID,23.9371,VALID,344,VALID,0.254297,
2009-07-06, 00:13:05,VALID,1005.06,VALID,0,VALID,93.2631,VALID,0,VALID,23.8593,VALID,344,VALID,0.260547,
2009-07-06, 00:14:05,VALID,1005.02,VALID,0,VALID,93.3394,VALID,0,VALID,23.8203,VALID,344,VALID,0.316797,
2009-07-06, 00:15:05,VALID,1005.03,VALID,0,VALID,93.3394,VALID,0,VALID,23.7814,VALID,344,VALID,0.314844,
2009-07-06, 00:16:05,VALID,1005.03,VALID,0,VALID,93.2859,VALID,0,VALID,23.7017,VALID,344,VALID,0.528125,
2009-07-06, 00:17:05,VALID,1004.99,VALID,0,VALID,93.3241,VALID,0,VALID,23.6841,VALID,344,VALID,0.396875,
2009-07-06, 00:18:05,VALID,1004.98,VALID,0,VALID,93.3928,VALID,0,VALID,23.6452,VALID,344,VALID,0.407813,
2009-07-06, 00:19:05,VALID,1004.97,VALID,0,VALID,93.7055,VALID,0,VALID,23.6646,VALID,344,VALID,0.38125,
2009-07-06, 00:20:05,VALID,1004.94,VALID,0,VALID,93.942,VALID,0,VALID,23.723,VALID,344,VALID,0.456641,
2009-07-06, 00:21:05,VALID,1004.91,VALID,0,VALID,94.0946,VALID,0,VALID,23.7212,VALID,344,VALID,0.382031,
2009-07-06, 00:22:05,VALID,1004.94,VALID,0,VALID,94.1862,VALID,0,VALID,23.8009,VALID,345,VALID,0.480859,
2009-07-06, 00:23:05,VALID,1004.91,VALID,0,VALID,94.209,VALID,0,VALID,23.7991,VALID,345,VALID,0.591797,
2009-07-06, 00:24:05,VALID,1004.9,VALID,0,VALID,94.1556,VALID,0,VALID,23.7601,VALID,345,VALID,0.501172,
2009-07-06, 00:25:05,VALID,1004.89,VALID,0,VALID,94.2396,VALID,0,VALID,23.8185,VALID,345,VALID,0.446484,
2009-07-06, 00:26:05,VALID,1004.9,VALID,0,VALID,94.2853,VALID,0,VALID,23.8593,VALID,345,VALID,0.482422,
2009-07-06, 00:27:05,VALID,1004.9,VALID,0,VALID,94.3464,VALID,0,VALID,23.8769,VALID,345,VALID,0.514063,
2009-07-06, 00:28:05,VALID,1004.9,VALID,0,VALID,94.3464,VALID,0,VALID,23.8964,VALID,345,VALID,0.482031,
2009-07-06, 00:29:05,VALID,1004.91,VALID,0,VALID,94.3158,VALID,0,VALID,23.8982,VALID,345,VALID,0.5625,
2009-07-06, 00:30:05,VALID,1004.89,VALID,0,VALID,94.2472,VALID,0,VALID,23.8575,VALID,345,VALID,0.419531,
2009-07-06, 00:31:05,VALID,1004.88,VALID,0,VALID,94.1938,VALID,0,VALID,23.8167,VALID,345,VALID,0.370313,
2009-07-06, 00:32:05,VALID,1004.87,VALID,0,VALID,94.1938,VALID,0.100563,VALID,23.838,VALID,345,VALID,0.535937,
2009-07-06, 00:33:05,VALID,1004.85,VALID,0,VALID,94.1785,VALID,0,VALID,23.7991,VALID,345,VALID,0.300781,
2009-07-06, 00:34:05,VALID,1004.84,VALID,0,VALID,94.0794,VALID,0,VALID,23.7601,VALID,345,VALID,0.280859,
2009-07-06, 00:35:05,VALID,1004.87,VALID,0,VALID,94.2167,VALID,0,VALID,23.8203,VALID,347,VALID,0.420703,
2009-07-06, 00:36:05,VALID,1004.82,VALID,0,VALID,94.293,VALID,0,VALID,23.8575,VALID,348,VALID,0.338281,
2009-07-06, 00:37:05,VALID,1004.82,VALID,0,VALID,94.3769,VALID,0,VALID,23.9159,VALID,348,VALID,0.494141,
2009-07-06, 00:38:05,VALID,1004.79,VALID,0,VALID,94.4532,VALID,0,VALID,24.015,VALID,349,VALID,0.640625,
2009-07-06, 00:39:05,VALID,1004.78,VALID,0,VALID,94.4837,VALID,0,VALID,24.015,VALID,351,VALID,0.533203,
2009-07-06, 00:40:05,VALID,1004.78,VALID,0,VALID,94.4913,VALID,0,VALID,24.0734,VALID,359,VALID,0.855469,
2009-07-06, 00:41:05,VALID,1004.77,VALID,0,VALID,94.4837,VALID,0,VALID,24.1318,VALID,346,VALID,0.498047,
2009-07-06, 00:42:05,VALID,1004.78,VALID,0,VALID,94.4227,VALID,0,VALID,24.1513,VALID,346,VALID,0.4625,
2009-07-06, 00:43:05,VALID,1004.78,VALID,0,VALID,94.3769,VALID,0,VALID,24.2097,VALID,342,VALID,0.346875,
2009-07-06, 00:44:05,VALID,1004.77,VALID,0,VALID,94.293,VALID,0,VALID,24.2078,VALID,347,VALID,0.366406,
2009-07-06, 00:45:05,VALID,1004.76,VALID,0,VALID,94.087,VALID,0,VALID,24.1884,VALID,355,VALID,0.304688,
2009-07-06, 00:46:05,VALID,1004.76,VALID,0,VALID,93.8505,VALID,0,VALID,24.2291,VALID,355,VALID,0.185156,
2009-07-06, 00:47:05,VALID,1004.77,VALID,0,VALID,93.7513,VALID,0,VALID,24.2273,VALID,355,VALID,0.00273437,
2009-07-06, 00:48:05,VALID,1004.73,VALID,0,VALID,93.6979,VALID,0,VALID,24.2273,VALID,355,VALID,0.4125,
2009-07-06, 00:49:05,VALID,1004.77,VALID,0,VALID,93.5377,VALID,0,VALID,24.2097,VALID,354,VALID,0.409766,
2009-07-06, 00:50:05,VALID,1004.69,VALID,0,VALID,93.4996,VALID,0,VALID,24.1884,VALID,354,VALID,0.444922,
2009-07-06, 00:51:05,VALID,1004.69,VALID,0,VALID,93.4843,VALID,0,VALID,24.2291,VALID,354,VALID,0.290625,
2009-07-06, 00:52:05,VALID,1004.67,VALID,0,VALID,93.4309,VALID,0,VALID,24.2273,VALID,354,VALID,0.230859,
2009-07-06, 00:53:05,VALID,1004.69,VALID,0,VALID,93.3394,VALID,0,VALID,24.2291,VALID,354,VALID,0.462891,
2009-07-06, 00:54:05,VALID,1004.67,VALID,0,VALID,93.4156,VALID,0,VALID,24.2681,VALID,354,VALID,0.418359,
2009-07-06, 00:55:05,VALID,1004.67,VALID,0,VALID,93.2325,VALID,0,VALID,24.2681,VALID,354,VALID,0.438672,
2009-07-06, 00:56:05,VALID,1004.69,VALID,0,VALID,93.1563,VALID,0,VALID,24.2486,VALID,354,VALID,0.558594,
2009-07-06, 00:57:05,VALID,1004.69,VALID,0,VALID,93.1105,VALID,0,VALID,24.2681,VALID,355,VALID,0.479688,
2009-07-06, 00:58:05,VALID,1004.67,VALID,0,VALID,92.9503,VALID,0,VALID,24.2486,VALID,350,VALID,0.470313,
2009-07-06, 00:59:05,VALID,1004.68,VALID,0,VALID,92.668,VALID,0,VALID,24.1707,VALID,350,VALID,0.435547,
2009-07-06, 01:00:05,VALID,1004.68,VALID,0,VALID,92.7062,VALID,0,VALID,24.1318,VALID,350,VALID,0.517969,
2009-07-06, 01:01:05,VALID,1004.66,VALID,0,VALID,92.6146,VALID,0,VALID,24.0734,VALID,350,VALID,0.514844,
2009-07-06, 01:02:05,VALID,1004.68,VALID,0,VALID,92.9655,VALID,0,VALID,24.0734,VALID,352,VALID,0.606641,
2009-07-06, 01:03:05,VALID,1004.64,VALID,0,VALID,93.1181,VALID,0,VALID,24.0929,VALID,355,VALID,0.472266,
2009-07-06, 01:04:05,VALID,1004.6,VALID,0,VALID,93.3012,VALID,0,VALID,24.1318,VALID,355,VALID,0.198047,
2009-07-06, 01:05:05,VALID,1004.61,VALID,0,VALID,93.4309,VALID,0,VALID,24.1513,VALID,339,VALID,0.618359,
2009-07-06, 01:06:05,VALID,1004.58,VALID,0,VALID,93.4767,VALID,0,VALID,24.2097,VALID,342,VALID,0.139453,
2009-07-06, 01:07:05,VALID,1004.58,VALID,0,VALID,93.4233,VALID,0,VALID,24.2291,VALID,342,VALID,0.194141,
2009-07-06, 01:08:05,VALID,1004.57,VALID,0,VALID,93.3546,VALID,0,VALID,24.2486,VALID,343,VALID,0.119531,
2009-07-06, 01:09:05,VALID,1004.53,VALID,0,VALID,93.347,VALID,0,VALID,24.2662,VALID,1,VALID,0.626953,
2009-07-06, 01:10:05,VALID,1004.52,VALID,0,VALID,93.3928,VALID,0,VALID,24.3265,VALID,349,VALID,0.537109,
2009-07-06, 01:11:05,VALID,1004.5,VALID,0,VALID,93.3546,VALID,0,VALID,24.3654,VALID,323,VALID,0.305859,
2009-07-06, 01:12:05,VALID,1004.5,VALID,0,VALID,93.3622,VALID,0,VALID,24.4433,VALID,355,VALID,0.620703,
2009-07-06, 01:13:05,VALID,1004.51,VALID,0,VALID,93.2097,VALID,0,VALID,24.4804,VALID,357,VALID,0.651172,
2009-07-06, 01:14:05,VALID,1004.49,VALID,0,VALID,92.9503,VALID,0,VALID,24.5388,VALID,355,VALID,0.164063,
2009-07-06, 01:15:05,VALID,1004.5,VALID,0,VALID,92.6604,VALID,0,VALID,24.5601,VALID,356,VALID,0.209766,
2009-07-06, 01:16:05,VALID,1004.47,VALID,0,VALID,92.4849,VALID,0,VALID,24.5601,VALID,351,VALID,0.667188,
2009-07-06, 01:17:05,VALID,1004.43,VALID,0,VALID,92.401,VALID,0,VALID,24.5972,VALID,349,VALID,0.7375,
2009-07-06, 01:18:05,VALID,1004.44,VALID,0,VALID,91.9814,VALID,0,VALID,24.599,VALID,353,VALID,0.489453,
2009-07-06, 01:19:05,VALID,1004.43,VALID,0,VALID,92.0348,VALID,0,VALID,24.5972,VALID,346,VALID,0.534766,
2009-07-06, 01:20:05,VALID,1004.42,VALID,0,VALID,91.8822,VALID,0,VALID,24.6574,VALID,337,VALID,0.222266,
2009-07-06, 01:21:05,VALID,1004.38,VALID,0,VALID,91.722,VALID,0.100563,VALID,24.6556,VALID,352,VALID,0.691406,
2009-07-06, 01:22:05,VALID,1004.39,VALID,0,VALID,91.7068,VALID,0,VALID,24.675,VALID,356,VALID,0.601563,
2009-07-06, 01:23:05,VALID,1004.37,VALID,0,VALID,91.6152,VALID,0,VALID,24.7335,VALID,355,VALID,0.748828,
2009-07-06, 01:24:05,VALID,1004.37,VALID,0,VALID,91.3635,VALID,0,VALID,24.7743,VALID,353,VALID,0.655078,
2009-07-06, 01:25:05,VALID,1004.37,VALID,0,VALID,91.188,VALID,0,VALID,24.7919,VALID,348,VALID,0.0882813,
2009-07-06, 01:26:05,VALID,1004.38,VALID,0,VALID,91.0125,VALID,0,VALID,24.8132,VALID,348,VALID,0.231641,
2009-07-06, 01:27:05,VALID,1004.36,VALID,0,VALID,90.9439,VALID,0,VALID,24.7919,VALID,349,VALID,0.325391,
2009-07-06, 01:28:05,VALID,1004.37,VALID,0,VALID,90.8829,VALID,0,VALID,24.8113,VALID,348,VALID,0.500781,
2009-07-06, 01:29:05,VALID,1004.33,VALID,0,VALID,90.8371,VALID,0,VALID,24.8308,VALID,350,VALID,0.491797,
2009-07-06, 01:30:05,VALID,1004.33,VALID,0,VALID,90.6769,VALID,0,VALID,24.8308,VALID,347,VALID,0.430859,
2009-07-06, 01:31:05,VALID,1004.34,VALID,0,VALID,90.6311,VALID,0,VALID,24.8522,VALID,337,VALID,0.576172,
2009-07-06, 01:32:05,VALID,1004.32,VALID,0,VALID,90.5243,VALID,0,VALID,24.8522,VALID,347,VALID,0.710938,
2009-07-06, 01:33:05,VALID,1004.3,VALID,0,VALID,90.4785,VALID,0,VALID,24.8522,VALID,340,VALID,0,
2009-07-06, 01:34:05,VALID,1004.31,VALID,0,VALID,90.3793,VALID,0,VALID,24.8132,VALID,340,VALID,0.00976563,
2009-07-06, 01:35:05,VALID,1004.3,VALID,0,VALID,90.4404,VALID,0,VALID,24.7937,VALID,352,VALID,0.298047,
2009-07-06, 01:36:05,VALID,1004.28,VALID,0,VALID,90.6158,VALID,0,VALID,24.7743,VALID,354,VALID,0.588281,
2009-07-06, 01:37:05,VALID,1004.29,VALID,0,VALID,90.7989,VALID,0,VALID,24.7743,VALID,352,VALID,0.527734,
2009-07-06, 01:38:05,VALID,1004.27,VALID,0,VALID,90.9134,VALID,0,VALID,24.714,VALID,353,VALID,0.299219,
2009-07-06, 01:39:05,VALID,1004.23,VALID,0,VALID,90.9363,VALID,0,VALID,24.7353,VALID,353,VALID,0.536328,
2009-07-06, 01:40:05,VALID,1004.26,VALID,0,VALID,91.0049,VALID,0,VALID,24.7159,VALID,355,VALID,0.534375,
2009-07-06, 01:41:05,VALID,1004.24,VALID,0,VALID,90.982,VALID,0,VALID,24.6964,VALID,354,VALID,0,
2009-07-06, 01:42:05,VALID,1004.25,VALID,0,VALID,91.0278,VALID,0,VALID,24.6769,VALID,354,VALID,0.0847656,
2009-07-06, 01:43:05,VALID,1004.22,VALID,0,VALID,91.0736,VALID,0,VALID,24.6574,VALID,346,VALID,0.142578,
2009-07-06, 01:44:05,VALID,1004.18,VALID,0,VALID,91.188,VALID,0,VALID,24.6574,VALID,330,VALID,0.255859,
2009-07-06, 01:45:05,VALID,1004.19,VALID,0,VALID,91.3253,VALID,0,VALID,24.638,VALID,330,VALID,0.0964844,
2009-07-06, 01:46:05,VALID,1004.16,VALID,0,VALID,91.4398,VALID,0,VALID,24.638,VALID,334,VALID,0.00195313,
2009-07-06, 01:47:05,VALID,1004.15,VALID,0,VALID,91.5847,VALID,0,VALID,24.6166,VALID,334,VALID,0.276953,
2009-07-06, 01:48:05,VALID,1004.17,VALID,0,VALID,91.6,VALID,0,VALID,24.638,VALID,335,VALID,0.446875,
2009-07-06, 01:49:05,VALID,1004.17,VALID,0,VALID,91.6991,VALID,0,VALID,24.6574,VALID,328,VALID,0.541016,
2009-07-06, 01:50:05,VALID,1004.16,VALID,0,VALID,91.6839,VALID,0,VALID,24.6574,VALID,304,VALID,0.481641,
2009-07-06, 01:51:05,VALID,1004.15,VALID,0,VALID,91.5313,VALID,0,VALID,24.6574,VALID,302,VALID,0.151953,
2009-07-06, 01:52:05,VALID,1004.18,VALID,0,VALID,91.4245,VALID,0,VALID,24.6574,VALID,303,VALID,0,
2009-07-06, 01:53:05,VALID,1004.14,VALID,0,VALID,91.2262,VALID,0,VALID,24.599,VALID,305,VALID,0.375,
2009-07-06, 01:54:04,VALID,1004.16,VALID,0,VALID,91.1041,VALID,0,VALID,24.5406,VALID,307,VALID,0.366797,
2009-07-06, 01:55:04,VALID,1004.18,VALID,0,VALID,91.0659,VALID,0,VALID,24.4628,VALID,319,VALID,0.369922,
2009-07-06, 01:56:04,VALID,1004.16,VALID,0,VALID,91.0965,VALID,0,VALID,24.3849,VALID,319,VALID,0.259766,
2009-07-06, 01:57:04,VALID,1004.16,VALID,0,VALID,91.2338,VALID,0,VALID,24.307,VALID,319,VALID,0.261328,
2009-07-06, 01:58:04,VALID,1004.13,VALID,0,VALID,91.5466,VALID,0,VALID,24.3088,VALID,319,VALID,0,
2009-07-06, 01:59:04,VALID,1004.14,VALID,0,VALID,91.7983,VALID,0,VALID,24.2468,VALID,319,VALID,0.199219,
2009-07-06, 02:00:04,VALID,1004.1,VALID,0,VALID,91.6305,VALID,0,VALID,24.192,VALID,319,VALID,0.19375,
2009-07-06, 02:01:04,VALID,1004.12,VALID,0,VALID,91.8441,VALID,0,VALID,24.1513,VALID,319,VALID,0.253516,
2009-07-06, 02:02:04,VALID,1004.1,VALID,0,VALID,92.2027,VALID,0,VALID,24.1318,VALID,319,VALID,0.213281,
2009-07-06, 02:03:04,VALID,1004.09,VALID,0,VALID,92.5917,VALID,0,VALID,24.1318,VALID,352,VALID,0.607031,
2009-07-06, 02:04:04,VALID,1004.06,VALID,0,VALID,92.8282,VALID,0,VALID,24.1707,VALID,352,VALID,0.555078,
2009-07-06, 02:05:04,VALID,1004.06,VALID,0,VALID,93.0342,VALID,0,VALID,24.1884,VALID,355,VALID,0.429297,
2009-07-06, 02:06:04,VALID,1004.05,VALID,0,VALID,93.1181,VALID,0,VALID,24.2486,VALID,356,VALID,0.676953,
2009-07-06, 02:07:04,VALID,1004.03,VALID,0,VALID,92.8969,VALID,0,VALID,24.2486,VALID,343,VALID,0.669922,
2009-07-06, 02:08:04,VALID,1004.03,VALID,0,VALID,92.7977,VALID,0,VALID,24.2078,VALID,357,VALID,0.788672,
2009-07-06, 02:09:04,VALID,1004,VALID,0,VALID,92.8282,VALID,0,VALID,24.2291,VALID,360,VALID,0.54375,
2009-07-06, 02:10:04,VALID,1004,VALID,0,VALID,92.935,VALID,0,VALID,24.2486,VALID,1,VALID,0.731641,
2009-07-06, 02:11:04,VALID,1003.99,VALID,0,VALID,93.0571,VALID,0,VALID,24.2662,VALID,350,VALID,0.745313,
2009-07-06, 02:12:04,VALID,1003.98,VALID,0,VALID,92.7138,VALID,0,VALID,24.2504,VALID,350,VALID,0.393359,
2009-07-06, 02:13:04,VALID,1003.97,VALID,0,VALID,92.8816,VALID,0,VALID,24.2486,VALID,350,VALID,0.341797,
2009-07-06, 02:14:04,VALID,1004,VALID,0,VALID,92.8282,VALID,0,VALID,24.2681,VALID,350,VALID,0.107031,
2009-07-06, 02:15:04,VALID,1003.95,VALID,0,VALID,92.7062,VALID,0,VALID,24.2291,VALID,321,VALID,0.235938,
2009-07-06, 02:16:04,VALID,1003.94,VALID,0,VALID,92.8435,VALID,0,VALID,24.2291,VALID,357,VALID,0.102734,
2009-07-06, 02:17:04,VALID,1003.95,VALID,0,VALID,92.9808,VALID,0,VALID,24.2681,VALID,354,VALID,0.721094,
2009-07-06, 02:18:04,VALID,1003.93,VALID,0,VALID,93.1029,VALID,0,VALID,24.3052,VALID,354,VALID,0.680078,
2009-07-06, 02:19:04,VALID,1003.92,VALID,0,VALID,93.141,VALID,0,VALID,24.3849,VALID,347,VALID,0.397656,
2009-07-06, 02:20:04,VALID,1003.89,VALID,0,VALID,92.8664,VALID,0,VALID,24.4043,VALID,347,VALID,0,
2009-07-06, 02:21:04,VALID,1003.87,VALID,0,VALID,92.6222,VALID,0,VALID,24.4043,VALID,347,VALID,0,
2009-07-06, 02:22:04,VALID,1003.9,VALID,0,VALID,92.4849,VALID,0,VALID,24.3849,VALID,347,VALID,0.401953,
2009-07-06, 02:23:04,VALID,1003.88,VALID,0,VALID,92.5078,VALID,0,VALID,24.3636,VALID,347,VALID,0.383984,
2009-07-06, 02:24:04,VALID,1003.89,VALID,0,VALID,92.4773,VALID,0,VALID,24.3849,VALID,347,VALID,0.283594,
2009-07-06, 02:25:04,VALID,1003.88,VALID,0,VALID,92.3323,VALID,0,VALID,24.3654,VALID,329,VALID,0.303125,
2009-07-06, 02:26:04,VALID,1003.86,VALID,0,VALID,92.3018,VALID,0,VALID,24.3265,VALID,329,VALID,0.00195313,
2009-07-06, 02:27:04,VALID,1003.85,VALID,0,VALID,92.3018,VALID,0,VALID,24.2857,VALID,329,VALID,0.317578,
2009-07-06, 02:28:04,VALID,1003.85,VALID,0,VALID,92.3095,VALID,0,VALID,24.2857,VALID,329,VALID,0,
2009-07-06, 02:29:04,VALID,1003.85,VALID,0,VALID,92.1798,VALID,0,VALID,24.2486,VALID,329,VALID,0.304688,
2009-07-06, 02:30:04,VALID,1003.85,VALID,0,VALID,92.0577,VALID,0,VALID,24.1689,VALID,329,VALID,0.0183594,
2009-07-06, 02:31:04,VALID,1003.84,VALID,0,VALID,91.9738,VALID,0,VALID,24.0716,VALID,329,VALID,0,
2009-07-06, 02:32:04,VALID,1003.86,VALID,0,VALID,92.073,VALID,0,VALID,24.0539,VALID,329,VALID,0,
2009-07-06, 02:33:04,VALID,1003.87,VALID,0,VALID,92.2713,VALID,0,VALID,23.9955,VALID,329,VALID,0,
2009-07-06, 02:34:04,VALID,1003.88,VALID,0,VALID,92.6833,VALID,0,VALID,24.0345,VALID,338,VALID,0.130078,
2009-07-06, 02:35:04,VALID,1003.86,VALID,0,VALID,93.0189,VALID,0,VALID,24.0326,VALID,354,VALID,0.271094,
2009-07-06, 02:36:04,VALID,1003.88,VALID,0,VALID,93.2402,VALID,0,VALID,24.1123,VALID,353,VALID,0.460938,
2009-07-06, 02:37:04,VALID,1003.88,VALID,0,VALID,93.2707,VALID,0,VALID,24.1318,VALID,353,VALID,0.449219,
2009-07-06, 02:38:04,VALID,1003.86,VALID,0,VALID,93.1791,VALID,0,VALID,24.1105,VALID,353,VALID,0.300391,
2009-07-06, 02:39:04,VALID,1003.86,VALID,0,VALID,93.2097,VALID,0,VALID,24.1318,VALID,353,VALID,0.0558594,
2009-07-06, 02:40:04,VALID,1003.86,VALID,0,VALID,93.1868,VALID,0,VALID,24.1318,VALID,353,VALID,0,
2009-07-06, 02:41:04,VALID,1003.84,VALID,0,VALID,93.1715,VALID,0,VALID,24.091,VALID,353,VALID,0.00351562,
2009-07-06, 02:42:04,VALID,1003.83,VALID,0,VALID,93.2478,VALID,0,VALID,24.1123,VALID,353,VALID,0.238281,
2009-07-06, 02:43:04,VALID,1003.83,VALID,0,VALID,93.469,VALID,0,VALID,24.1494,VALID,353,VALID,0.614453,
2009-07-06, 02:44:04,VALID,1003.78,VALID,0,VALID,93.553,VALID,0,VALID,24.2078,VALID,350,VALID,0.391406,
2009-07-06, 02:45:04,VALID,1003.77,VALID,0,VALID,93.3241,VALID,0,VALID,24.2078,VALID,350,VALID,0.459375,
2009-07-06, 02:46:04,VALID,1003.76,VALID,0,VALID,93.1257,VALID,0,VALID,24.1902,VALID,350,VALID,0.482031,
2009-07-06, 02:47:04,VALID,1003.77,VALID,0,VALID,93.0342,VALID,0,VALID,24.1707,VALID,350,VALID,0.539844,
2009-07-06, 02:48:04,VALID,1003.76,VALID,0,VALID,92.8511,VALID,0,VALID,24.1123,VALID,349,VALID,0.445703,
2009-07-06, 02:49:04,VALID,1003.76,VALID,0,VALID,92.7748,VALID,0,VALID,24.0326,VALID,349,VALID,0.405469,
2009-07-06, 02:50:04,VALID,1003.75,VALID,0,VALID,92.7596,VALID,0,VALID,23.9742,VALID,349,VALID,0.376563,
2009-07-06, 02:51:04,VALID,1003.73,VALID,0,VALID,92.607,VALID,0,VALID,23.8982,VALID,349,VALID,0.289063,
2009-07-06, 02:52:04,VALID,1003.74,VALID,0,VALID,92.6756,VALID,0,VALID,23.838,VALID,349,VALID,0.53125,
2009-07-06, 02:53:04,VALID,1003.71,VALID,0,VALID,92.9198,VALID,0,VALID,23.8185,VALID,348,VALID,0.419141,
2009-07-06, 02:54:04,VALID,1003.72,VALID,0,VALID,93.0876,VALID,0,VALID,23.8398,VALID,348,VALID,0.444141,
2009-07-06, 02:55:04,VALID,1003.71,VALID,0,VALID,93.3394,VALID,0,VALID,23.8398,VALID,348,VALID,0.26875,
2009-07-06, 02:56:04,VALID,1003.7,VALID,0,VALID,93.4614,VALID,0.100563,VALID,23.8593,VALID,348,VALID,0.386719,
2009-07-06, 02:57:04,VALID,1003.72,VALID,0,VALID,93.6521,VALID,0,VALID,23.8575,VALID,348,VALID,0.328906,
2009-07-06, 02:58:04,VALID,1003.72,VALID,0,VALID,93.7742,VALID,0,VALID,23.8964,VALID,348,VALID,0.172266,
2009-07-06, 02:59:04,VALID,1003.69,VALID,0,VALID,93.9191,VALID,0,VALID,23.9566,VALID,348,VALID,0.171094,
2009-07-06, 03:00:04,VALID,1003.7,VALID,0,VALID,93.9954,VALID,0,VALID,23.9761,VALID,348,VALID,0.250781,
2009-07-06, 03:01:04,VALID,1003.65,VALID,0,VALID,93.9191,VALID,0,VALID,23.9761,VALID,348,VALID,0.445703,
2009-07-06, 03:02:04,VALID,1003.64,VALID,0,VALID,93.7589,VALID,0,VALID,23.9584,VALID,348,VALID,0.383594,
2009-07-06, 03:03:04,VALID,1003.63,VALID,0,VALID,93.5911,VALID,0,VALID,23.8787,VALID,348,VALID,0.344922,
2009-07-06, 03:04:04,VALID,1003.65,VALID,0,VALID,93.6292,VALID,0,VALID,23.8593,VALID,348,VALID,0.366016,
2009-07-06, 03:05:04,VALID,1003.6,VALID,0,VALID,93.5987,VALID,0,VALID,23.8398,VALID,348,VALID,0.283984,
2009-07-06, 03:06:04,VALID,1003.59,VALID,0,VALID,93.4843,VALID,0,VALID,23.7832,VALID,348,VALID,0.116016,
2009-07-06, 03:07:04,VALID,1003.61,VALID,0,VALID,93.4156,VALID,0,VALID,23.7035,VALID,348,VALID,0.119141,
2009-07-06, 03:08:04,VALID,1003.64,VALID,0,VALID,93.3851,VALID,0,VALID,23.6646,VALID,348,VALID,0.0878906,
2009-07-06, 03:09:04,VALID,1003.66,VALID,0,VALID,93.4767,VALID,0,VALID,23.6452,VALID,348,VALID,0,
2009-07-06, 03:10:04,VALID,1003.63,VALID,0,VALID,93.5682,VALID,0,VALID,23.6469,VALID,348,VALID,0.0316406,
2009-07-06, 03:11:04,VALID,1003.61,VALID,0,VALID,93.5758,VALID,0,VALID,23.6062,VALID,348,VALID,0,
2009-07-06, 03:12:04,VALID,1003.63,VALID,0,VALID,93.675,VALID,0,VALID,23.6062,VALID,348,VALID,0,
2009-07-06, 03:13:04,VALID,1003.6,VALID,0,VALID,93.7132,VALID,0,VALID,23.5673,VALID,348,VALID,0,
2009-07-06, 03:14:04,VALID,1003.6,VALID,0,VALID,93.6979,VALID,0,VALID,23.5478,VALID,348,VALID,0,
2009-07-06, 03:15:04,VALID,1003.62,VALID,0,VALID,93.7742,VALID,0,VALID,23.5478,VALID,348,VALID,0,
2009-07-06, 03:16:04,VALID,1003.62,VALID,0,VALID,93.942,VALID,0,VALID,23.546,VALID,348,VALID,0,
2009-07-06, 03:17:04,VALID,1003.59,VALID,0,VALID,94.0412,VALID,0,VALID,23.5655,VALID,348,VALID,0,
2009-07-06, 03:18:04,VALID,1003.62,VALID,0,VALID,94.1175,VALID,0,VALID,23.5655,VALID,348,VALID,0,
2009-07-06, 03:19:04,VALID,1003.61,VALID,0,VALID,94.1404,VALID,0,VALID,23.5868,VALID,348,VALID,0,
2009-07-06, 03:20:04,VALID,1003.62,VALID,0,VALID,94.1251,VALID,0,VALID,23.546,VALID,348,VALID,0,
2009-07-06, 03:21:04,VALID,1003.59,VALID,0,VALID,94.1099,VALID,0,VALID,23.5053,VALID,348,VALID,0,
2009-07-06, 03:22:04,VALID,1003.61,VALID,0,VALID,94.0717,VALID,0,VALID,23.5089,VALID,348,VALID,0,
2009-07-06, 03:23:04,VALID,1003.59,VALID,0,VALID,94.0565,VALID,0,VALID,23.4894,VALID,348,VALID,0,
2009-07-06, 03:24:04,VALID,1003.58,VALID,0,VALID,94.1785,VALID,0,VALID,23.4877,VALID,348,VALID,0,
2009-07-06, 03:25:04,VALID,1003.6,VALID,0,VALID,94.2014,VALID,0,VALID,23.4894,VALID,348,VALID,0,
2009-07-06, 03:26:04,VALID,1003.58,VALID,0,VALID,94.1862,VALID,0,VALID,23.47,VALID,348,VALID,0,
2009-07-06, 03:27:04,VALID,1003.58,VALID,0,VALID,94.1862,VALID,0,VALID,23.4293,VALID,348,VALID,0,
2009-07-06, 03:28:04,VALID,1003.6,VALID,0,VALID,94.2243,VALID,0,VALID,23.4718,VALID,348,VALID,0,
2009-07-06, 03:29:04,VALID,1003.56,VALID,0,VALID,94.3082,VALID,0,VALID,23.4682,VALID,348,VALID,0,
2009-07-06, 03:30:04,VALID,1003.59,VALID,0,VALID,94.3464,VALID,0,VALID,23.5107,VALID,348,VALID,0,
2009-07-06, 03:31:04,VALID,1003.57,VALID,0,VALID,94.3998,VALID,0,VALID,23.4894,VALID,348,VALID,0.122266,
2009-07-06, 03:32:04,VALID,1003.53,VALID,0,VALID,94.3921,VALID,0,VALID,23.4505,VALID,348,VALID,0.565234,
2009-07-06, 03:33:04,VALID,1003.54,VALID,0,VALID,94.3082,VALID,0,VALID,23.3514,VALID,348,VALID,0.466016,
2009-07-06, 03:34:04,VALID,1003.54,VALID,0,VALID,94.3921,VALID,0,VALID,23.3727,VALID,348,VALID,0.555859,
2009-07-06, 03:35:04,VALID,1003.53,VALID,0,VALID,94.4303,VALID,0,VALID,23.3709,VALID,348,VALID,0.423828,
2009-07-06, 03:36:04,VALID,1003.53,VALID,0,VALID,94.6973,VALID,0,VALID,23.5673,VALID,348,VALID,0.403125,
2009-07-06, 03:37:04,VALID,1003.53,VALID,0,VALID,94.7965,VALID,0,VALID,23.6841,VALID,348,VALID,0.242578,
2009-07-06, 03:38:04,VALID,1003.51,VALID,0,VALID,94.8422,VALID,0,VALID,23.7035,VALID,348,VALID,0.386719,
2009-07-06, 03:39:04,VALID,1003.55,VALID,0,VALID,94.8499,VALID,0,VALID,23.6452,VALID,349,VALID,0.549219,
2009-07-06, 03:40:04,VALID,1003.54,VALID,0,VALID,94.766,VALID,0,VALID,23.6062,VALID,349,VALID,0.404297,
2009-07-06, 03:41:04,VALID,1003.51,VALID,0,VALID,94.7278,VALID,0,VALID,23.5885,VALID,349,VALID,0.324219,
2009-07-06, 03:42:04,VALID,1003.53,VALID,0,VALID,94.7354,VALID,0,VALID,23.5673,VALID,349,VALID,0.0792969,
2009-07-06, 03:43:04,VALID,1003.53,VALID,0,VALID,94.7583,VALID,0,VALID,23.5673,VALID,349,VALID,0,
2009-07-06, 03:44:04,VALID,1003.53,VALID,0,VALID,94.7507,VALID,0,VALID,23.5673,VALID,349,VALID,0,
2009-07-06, 03:45:04,VALID,1003.54,VALID,0,VALID,94.7507,VALID,0,VALID,23.5478,VALID,349,VALID,0.439844,
2009-07-06, 03:46:04,VALID,1003.54,VALID,0,VALID,94.7125,VALID,0,VALID,23.4894,VALID,349,VALID,0.260938,